Volver al catálogo

STARLINK-11663

ActivoComunicacionesVLEO
NORAD 63668·PAYLOAD·🇺🇸 United States

Lanzado Apr 28, 2025 desde Cape Canaveral Space Force Station

Loading…

Próximos Pases (próximas 24 horas)

TLE

ActualizadoSource: CelesTrak SupGP

Época: Sep 15, 2026, 02:15 UTC

1 63668C 25085E   26258.09423611 -.00090278  00000+0 -70108-3 0  2582
2 63668  43.0005 217.0640 0001815 259.3870 212.5268 15.70886074    15

Sigue STARLINK-11663 en tiempo real con AllMySat

Download on the App Store